Printer-friendly version

IAU Minor Planet Center

Minor Planet Center

MPEC 2005-G16 : 2005 GU

The following Minor Planet Electronic Circular may be linked-to from your own Web pages, but must not otherwise be redistributed electronically.


Read MPEC 2005-G15 Read MPEC 2005-G17


M.P.E.C. 2005-G16                                Issued 2005 Apr. 3, 00:00 UT

     The Minor Planet Electronic Circulars contain information on unusual
         minor planets and routine data on comets.  They are published
   on behalf of Commission 20 of the International Astronomical Union by the
          Minor Planet Center, Smithsonian Astrophysical Observatory,
                          Cambridge, MA 02138, U.S.A.

                  Supported in part by the Brinson Foundation
             Prepared using the Tamkin Foundation Computer Network

                              MPC@CFA.HARVARD.EDU
          URL http://cfa-www.harvard.edu/iau/mpc.html  ISSN 1523-6714

                                    2005 GU

Observations:
     K05G00U* C2005 04 02.38601 13 55 51.25 +21 13 35.2          18.0 R EG016703
     K05G00U  C2005 04 02.39498 13 55 49.24 +21 13 42.6          17.5 R EG016703
     K05G00U  C2005 04 02.40396 13 55 47.24 +21 13 50.8          18.0 R EG016703
     K05G00U  C2005 04 02.41292 13 55 45.28 +21 13 57.0          17.9 R EG016703
     K05G00U  C2005 04 02.46955 13 55 32.62 +21 14 47.5          17.9 R EG016703
     K05G00U  C2005 04 02.47224 13 55 31.98 +21 14 49.8          17.9 R EG016703
     K05G00U  C2005 04 02.47494 13 55 31.40 +21 14 52.4          18.2 R EG016703
     K05G00U  C2005 04 02.47762 13 55 30.78 +21 14 54.2          18.2 R EG016703
     K05G00U  C2005 04 02.85383 13 54 11.95 +21 20 22.6          18.7 V EG016611
     K05G00U  C2005 04 02.86890 13 54 08.35 +21 20 36.1                 EG016611
     K05G00U  C2005 04 02.87843 13 54 06.31 +21 20 45.8                 EG016611
     K05G00U  C2005 04 02.90770 13 53 59.69 +21 21 10.0                 EG016J95
     K05G00U  C2005 04 02.91483 13 53 58.02 +21 21 17.4                 EG016J95
     K05G00U  C2005 04 02.92226 13 53 56.28 +21 21 24.1          18.4 R EG016J95
     K05G00U  C2005 04 02.95779 13 53 47.78 +21 22 00.6                 EG016246
     K05G00U  C2005 04 02.95907 13 53 47.51 +21 22 01.6                 EG016246
     K05G00U  C2005 04 02.95947 13 53 47.35 +21 22 01.7                 EG016246
     K05G00U  C2005 04 02.96056 13 53 47.13 +21 22 02.8                 EG016246
     K05G00U  C2005 04 02.96118 13 53 46.98 +21 22 03.4                 EG016246
     K05G00U  C2005 04 02.96166 13 53 46.86 +21 22 03.7                 EG016246
     K05G00U  C2005 04 02.96215 13 53 46.74 +21 22 04.2                 EG016246

Observer details:
246 Klet Observatory-KLENOT.  Observers J. Ticha, M. Tichy.  Measurer M. Tichy.
    1.06-m KLENOT Telescope + CCD.
611 Starkenburg.  Observers M. Busch, A. Heller, M. Gerloff, I. Willberger,
    S. Froelich, T. Haeusler.  0.45-m f/4.4 reflector + CCD.
703 Catalina Sky Survey.  Observer R. Hill.  Measurers E. C. Beshore,
    C. M. Casey, E. J. Christensen, G. J. Garradd, R. E. Hill, S. M. Larson,
    R. H. McNaught.  0.68-m Schmidt + CCD.
J95 Great Shefford.  Observer P. Birtwhistle.  0.30-m f/6.3 Schmidt-Cassegrain
    + CCD.

Orbital elements:
2005 GU                                                              PHA 0.028D
Epoch 2005 Mar. 31.0 TT = JDT 2453460.5                 MPC
M 319.80141              (2000.0)            P               Q
n   0.52891136     Peri.  276.13974     +0.51007030     +0.83839100
a   1.5143077      Node    27.36006     -0.52547909     +0.48061598
e   0.6042684      Incl.   24.71716     -0.68095522     +0.25711632
P   1.86           H   19.8           G   0.15
From 21 observations 2005 Apr. 2-2.

Ephemeris:
2005 GU                  a,e,i = 1.51, 0.60, 25                  q = 0.5993
Date    TT    R. A. (2000) Decl.     Delta      r     Elong.  Phase     V
2005 03 31    14 03.26   +20 39.1    0.289    1.252   147.6    25.3    18.8
2005 04 02    13 57.19   +21 07.9    0.264    1.233   148.6    25.0    18.5
2005 04 04    13 49.66   +21 38.2    0.240    1.213   149.4    24.9    18.3
2005 04 06    13 40.26   +22 09.7    0.217    1.193   149.8    25.0    18.0
2005 04 08    13 28.41   +22 41.8    0.194    1.173   149.7    25.5    17.8
2005 04 10    13 13.29   +23 13.0    0.172    1.153   148.9    26.7    17.5
2005 04 12    12 53.73   +23 40.3    0.151    1.132   147.0    28.8    17.2
2005 04 14    12 28.08   +23 57.0    0.131    1.111   143.5    32.4    17.0
2005 04 16    11 54.17   +23 49.4    0.114    1.091   137.9    38.1    16.8
2005 04 18    11 09.79   +22 52.3    0.0992   1.070   129.4    46.4    16.7
2005 04 20    10 14.27   +20 29.4    0.0887   1.049   117.8    57.9    16.7
2005 04 22    09 11.30   +16 16.1    0.0838   1.028   103.5    72.0    17.0
2005 04 24    08 09.12   +10 41.9    0.0854   1.007    88.3    86.8    17.5
2005 04 26    07 15.33   +05 03.5    0.0931   0.986    74.6   100.2    18.2
2005 04 28    06 32.59   +00 18.7    0.106    0.964    63.6   110.8    19.1
2005 04 30    05 59.71   -03 18.6    0.121    0.943    55.2   118.8    19.8

Timothy B. Spahr             (C) Copyright 2005 MPC           M.P.E.C. 2005-G16

Read MPEC 2005-G15 Read MPEC 2005-G17


Our Web policy. Index to the CBAT/MPC/ICQ pages.


Valid HTML 4.01!